Hourly Weather Abasolo

Today, 29 October, Thursday

Time Temperature Precipitation Wind Pressure Humidity
00:00 +14°C° 0 mm 2 mps 757 mmHg 33%
01:00 +14°C° 0 mm 2 mps 757 mmHg 34%
02:00 +14°C° 0 mm 2 mps 757 mmHg 35%
03:00 +14°C° 0 mm 2 mps 757 mmHg 36%
04:00 +14°C° 0 mm 2 mps 758 mmHg 36%
05:00 +14°C° 0 mm 2 mps 758 mmHg 37%
06:00 +16°C° 0 mm 2 mps 759 mmHg 34%
07:00 +18°C° 0 mm 3 mps 759 mmHg 31%
08:00 +20°C° 0 mm 3 mps 760 mmHg 27%
09:00 +22°C° 0 mm 3 mps 760 mmHg 26%
10:00 +25°C° 0 mm 4 mps 760 mmHg 25%
11:00 +26°C° 0 mm 4 mps 759 mmHg 24%
12:00 +27°C° 0 mm 4 mps 759 mmHg 24%
13:00 +27°C° 0 mm 4 mps 758 mmHg 25%
14:00 +28°C° 0 mm 4 mps 757 mmHg 25%
15:00 +26°C° 0 mm 4 mps 758 mmHg 29%
16:00 +23°C° 0 mm 4 mps 758 mmHg 32%
17:00 +21°C° 0 mm 4 mps 758 mmHg 36%
18:00 +20°C° 0 mm 3 mps 759 mmHg 39%
19:00 +18°C° 0 mm 3 mps 760 mmHg 43%
20:00 +17°C° 0 mm 2 mps 761 mmHg 47%
21:00 +16°C° 0 mm 2 mps 761 mmHg 50%
22:00 +16°C° 0 mm 2 mps 761 mmHg 52%
23:00 +15°C° 0 mm 2 mps 761 mmHg 55%

Tomorrow, 30 October, Friday

Time Temperature Precipitation Wind Pressure Humidity
00:00 +15°C° 0 mm 2 mps 761 mmHg 56%
01:00 +14°C° 0 mm 2 mps 760 mmHg 57%
02:00 +14°C° 0 mm 2 mps 760 mmHg 58%
03:00 +14°C° 0 mm 2 mps 760 mmHg 60%
04:00 +13°C° 0 mm 2 mps 761 mmHg 62%
05:00 +13°C° 0 mm 2 mps 761 mmHg 63%
06:00 +15°C° 0 mm 2 mps 761 mmHg 59%
07:00 +17°C° 0 mm 3 mps 762 mmHg 54%
08:00 +19°C° 0 mm 3 mps 762 mmHg 50%
09:00 +21°C° 0 mm 4 mps 762 mmHg 46%
10:00 +22°C° 0 mm 4 mps 762 mmHg 43%
11:00 +25°C° 0 mm 4 mps 762 mmHg 39%
12:00 +25°C° 0 mm 4 mps 761 mmHg 39%
13:00 +25°C° 0 mm 5 mps 760 mmHg 39%
14:00 +26°C° 0 mm 5 mps 759 mmHg 39%
15:00 +23°C° 0 mm 4 mps 759 mmHg 44%
16:00 +21°C° 0 mm 3 mps 759 mmHg 49%
17:00 +19°C° 0 mm 3 mps 759 mmHg 54%
18:00 +18°C° 0 mm 2 mps 760 mmHg 58%
19:00 +18°C° 0 mm 1 mps 760 mmHg 63%
20:00 +15°C° 0 mm 1 mps 761 mmHg 67%
21:00 +15°C° 0 mm 1 mps 761 mmHg 69%
22:00 +15°C° 0 mm 1 mps 760 mmHg 71%
23:00 +14°C° 0 mm 1 mps 760 mmHg 73%

Day after tomorrow, 31 October, Saturday

Time Temperature Precipitation Wind Pressure Humidity
00:00 +14°C° 0 mm 1 mps 760 mmHg 74%
01:00 +14°C° 0 mm 1 mps 759 mmHg 74%
02:00 +13°C° 0 mm 1 mps 759 mmHg 75%
03:00 +13°C° 0 mm 1 mps 759 mmHg 76%
04:00 +13°C° 0 mm 1 mps 759 mmHg 76%
05:00 +13°C° 0 mm 1 mps 759 mmHg 77%
06:00 +16°C° 0 mm 1 mps 759 mmHg 69%
07:00 +19°C° 0 mm 1 mps 760 mmHg 62%
08:00 +22°C° 0 mm 1 mps 760 mmHg 54%
09:00 +24°C° 0 mm 1 mps 759 mmHg 48%
10:00 +26°C° 0 mm 1 mps 759 mmHg 42%
11:00 +28°C° 0 mm 1 mps 759 mmHg 37%
12:00 +29°C° 0 mm 2 mps 758 mmHg 36%
13:00 +29°C° 0 mm 2 mps 757 mmHg 35%
14:00 +30°C° 0 mm 3 mps 756 mmHg 33%
15:00 +28°C° 0 mm 3 mps 757 mmHg 43%
16:00 +25°C° 0 mm 3 mps 757 mmHg 52%
17:00 +22°C° 0 mm 4 mps 757 mmHg 61%
18:00 +21°C° 0 mm 3 mps 758 mmHg 68%
19:00 +19°C° 0 mm 2 mps 758 mmHg 76%
20:00 +18°C° 0 mm 2 mps 759 mmHg 83%
21:00 +19°C° 0 mm 1 mps 759 mmHg 85%
22:00 +18°C° 0 mm 1 mps 759 mmHg 86%
23:00 +18°C° 0 mm 1 mps 759 mmHg 88%

1 November, Sunday

Time Temperature Precipitation Wind Pressure Humidity
00:00 +18°C° 0 mm 1 mps 759 mmHg 88%
01:00 +15°C° 0 mm 0 mps 758 mmHg 88%
02:00 +15°C° 0 mm 0 mps 758 mmHg 88%
03:00 +15°C° 0 mm 0 mps 759 mmHg 88%
04:00 +15°C° 0 mm 0 mps 759 mmHg 88%
05:00 +15°C° 0 mm 0 mps 760 mmHg 88%
06:00 +19°C° 0 mm 1 mps 760 mmHg 80%
07:00 +22°C° 0 mm 1 mps 761 mmHg 71%
08:00 +24°C° 0 mm 1 mps 761 mmHg 63%
09:00 +26°C° 0 mm 2 mps 761 mmHg 57%
10:00 +28°C° 0 mm 2 mps 761 mmHg 51%
11:00 +29°C° 0 mm 3 mps 761 mmHg 45%
12:00 +29°C° 0 mm 4 mps 761 mmHg 45%
13:00 +29°C° 0 mm 5 mps 760 mmHg 46%
14:00 +29°C° 0 mm 6 mps 760 mmHg 46%
15:00 +28°C° 0 mm 5 mps 760 mmHg 53%
16:00 +26°C° 0 mm 4 mps 761 mmHg 60%
17:00 +25°C° 0 mm 4 mps 761 mmHg 67%
18:00 +23°C° 0.2 mm 4 mps 762 mmHg 72%
19:00 +22°C° 0.2 mm 3 mps 763 mmHg 78%
20:00 +22°C° 0.2 mm 3 mps 763 mmHg 84%
21:00 +21°C° 0.1 mm 3 mps 763 mmHg 84%
22:00 +20°C° 0.1 mm 3 mps 763 mmHg 85%
23:00 +19°C° 0.1 mm 3 mps 763 mmHg 86%

2 November, Monday

Time Temperature Precipitation Wind Pressure Humidity
00:00 +19°C° 0 mm 3 mps 763 mmHg 87%
01:00 +19°C° 0 mm 3 mps 763 mmHg 88%
02:00 +18°C° 0 mm 3 mps 763 mmHg 90%
03:00 +18°C° 0 mm 3 mps 763 mmHg 90%
04:00 +18°C° 0 mm 3 mps 764 mmHg 90%
05:00 +18°C° 0 mm 3 mps 764 mmHg 90%
06:00 +19°C° 0 mm 4 mps 765 mmHg 82%
07:00 +21°C° 0 mm 5 mps 765 mmHg 74%
08:00 +23°C° 0 mm 6 mps 766 mmHg 66%
09:00 +24°C° 0 mm 6 mps 765 mmHg 59%
10:00 +26°C° 0 mm 7 mps 765 mmHg 52%
11:00 +28°C° 0 mm 7 mps 764 mmHg 45%
12:00 +28°C° 0 mm 7 mps 764 mmHg 46%
13:00 +27°C° 0 mm 7 mps 763 mmHg 46%
14:00 +27°C° 0 mm 7 mps 762 mmHg 47%
15:00 +26°C° 0 mm 6 mps 763 mmHg 52%
16:00 +23°C° 0 mm 5 mps 763 mmHg 57%
17:00 +22°C° 0 mm 4 mps 763 mmHg 62%
18:00 +21°C° 0 mm 4 mps 764 mmHg 67%
19:00 +20°C° 0 mm 3 mps 764 mmHg 71%
20:00 +18°C° 0 mm 3 mps 764 mmHg 76%
21:00 +18°C° 0 mm 3 mps 764 mmHg 79%
22:00 +17°C° 0 mm 3 mps 764 mmHg 82%
23:00 +16°C° 0 mm 3 mps 764 mmHg 85%

3 November, Tuesday

Time Temperature Precipitation Wind Pressure Humidity
00:00 +16°C° 0 mm 2 mps 764 mmHg 86%
01:00 +16°C° 0 mm 2 mps 763 mmHg 87%
02:00 +15°C° 0 mm 2 mps 763 mmHg 87%
03:00 +15°C° 0 mm 2 mps 763 mmHg 87%
04:00 +15°C° 0 mm 2 mps 763 mmHg 87%
05:00 +15°C° 0 mm 2 mps 763 mmHg 86%
06:00 +17°C° 0 mm 2 mps 763 mmHg 78%
07:00 +19°C° 0 mm 2 mps 763 mmHg 69%
08:00 +21°C° 0 mm 2 mps 764 mmHg 60%
09:00 +24°C° 0 mm 2 mps 763 mmHg 55%
10:00 +25°C° 0 mm 2 mps 763 mmHg 49%
11:00 +27°C° 0 mm 3 mps 762 mmHg 44%
12:00 +27°C° 0 mm 3 mps 762 mmHg 44%
13:00 +27°C° 0 mm 4 mps 761 mmHg 44%
14:00 +27°C° 0 mm 4 mps 760 mmHg 43%
15:00 +26°C° 0 mm 4 mps 760 mmHg 51%
16:00 +24°C° 0 mm 3 mps 760 mmHg 58%
17:00 +21°C° 0 mm 3 mps 760 mmHg 65%
18:00 +20°C° 0 mm 3 mps 761 mmHg 70%
19:00 +19°C° 0 mm 2 mps 761 mmHg 75%
20:00 +19°C° 0 mm 1 mps 762 mmHg 80%
21:00 +19°C° 0 mm 1 mps 761 mmHg 82%
22:00 +19°C° 0 mm 1 mps 761 mmHg 84%
23:00 +16°C° 0 mm 0 mps 761 mmHg 86%
Show more